GEFSCGP_con_prob3kmehi_150.txt.gz
EHI
0 0 0 0 0 0 0 0 0 0 0 0 1 5 9 15 23 29 34 36 33 28 24 21 18 14 12 10 10 11 9 5 2 1 0 0 0 0 0 0 0 0 0 0
0 0 0 0 0 0 0 0 0 0 0 0 1 3 7 11 17 22 28 32 31 27 24 21 17 14 11 9 8 8 7 4 1 0 1 1 1 1 1 0 0 0 0 0
0 0 0 0 0 0 0 0 0 0 0 0 0 1 3 6 8 11 19 25 26 25 23 20 16 12 10 8 7 5 4 3 1 1 2 3 2 2 2 1 1 0 0 0
0 0 0 0 0 0 0 0 0 0 0 0 0 0 1 3 3 5 11 17 20 20 19 17 14 11 9 8 6 4 2 2 2 2 4 4 3 3 3 3 2 1 0 0
0 0 0 0 0 0 0 0 0 0 0 0 0 0 0 2 2 3 6 10 12 13 12 11 11 11 8 7 6 4 2 2 2 4 5 4 3 3 3 3 2 1 0 0
0 0 0 0 0 0 0 0 0 0 0 0 0 0 0 1 2 2 3 4 5 7 8 8 9 10 9 7 6 5 3 2 3 4 4 4 3 3 3 2 1 0 0 0
0 0 0 0 0 0 0 0 0 0 0 0 0 0 0 0 1 1 1 2 3 4 6 6 7 9 9 8 6 5 3 2 2 3 4 3 3 3 2 1 0 0 0 0
0 0 0 0 0 0 0 0 0 0 0 0 0 0 0 0 0 0 1 2 2 2 3 4 6 8 8 6 5 3 2 1 2 3 3 3 3 3 1 0 0 0 0 0
0 0 0 0 0 0 0 0 0 0 0 0 0 0 0 0 0 0 1 2 1 0 1 2 4 6 5 3 2 1 1 1 2 3 3 3 3 2 1 0 0 0 0 0
0 0 0 0 0 0 0 0 0 0 0 0 0 0 0 0 0 0 1 1 0 0 0 1 1 2 1 0 0 0 1 2 2 2 3 3 3 1 0 0 0 0 0 0
0 0 0 0 0 0 0 0 0 0 0 0 0 0 0 0 0 0 0 0 0 0 0 0 0 0 0 0 0 0 1 1 2 3 4 4 3 1 1 1 0 0 0 0
0 0 0 0 0 0 0 0 0 0 0 0 0 0 0 0 0 0 0 0 0 0 0 0 0 0 0 0 0 0 0 0 1 3 4 3 3 3 2 2 1 0 0 0
0 0 0 0 0 0 0 0 0 0 0 0 0 0 0 0 0 0 0 0 0 0 0 0 0 0 0 0 0 0 0 0 1 2 3 3 3 3 3 3 2 0 0 0
0 0 0 0 0 0 0 0 0 0 0 0 0 0 0 0 0 0 0 0 0 0 0 0 0 0 0 0 0 0 0 1 1 3 3 3 3 3 3 3 1 0 0 0
0 0 0 0 0 0 0 0 0 0 0 0 0 0 0 0 0 0 0 0 0 0 0 0 0 1 2 2 1 1 1 2 3 3 3 3 3 3 3 2 1 0 0 0
0 0 0 0 0 0 0 0 0 0 0 0 0 0 0 0 0 0 0 0 0 0 1 1 1 1 3 4 5 4 3 4 4 3 3 3 3 3 2 1 0 0 0 0
0 0 0 0 0 0 0 0 0 0 0 0 0 0 0 0 0 0 0 0 0 0 1 1 1 0 2 4 6 6 5 6 6 5 5 3 2 2 1 0 0 0 0 0
0 0 0 0 0 0 0 0 0 0 0 0 0 0 0 0 0 0 0 0 0 0 0 0 0 0 1 3 5 6 7 8 8 7 6 3 1 0 0 0 0 0 0 0
0 0 0 0 0 0 0 0 0 0 0 0 0 0 0 0 0 0 0 0 0 0 0 0 0 0 0 1 4 6 8 9 9 8 5 2 0 0 0 0 0 0 0 0
0 0 0 0 0 0 0 0 0 0 0 0 0 0 0 0 0 0 0 0 0 0 0 0 0 0 0 1 4 6 7 7 8 7 4 1 0 0 0 0 0 0 0 0
0 0 0 0 0 0 0 0 0 0 0 0 0 0 0 0 0 0 0 0 0 0 0 0 0 0 0 1 3 5 4 3 4 3 1 0 0 0 0 0 0 0 0 0
0 0 0 0 0 0 0 0 0 0 0 0 0 0 0 0 0 0 0 0 0 0 0 0 0 0 0 0 1 2 1 0 1 1 0 0 0 0 0 0 0 0 0 0
0 0 0 0 0 0 0 0 0 0 0 0 0 0 0 0 0 0 0 0 0 0 0 0 0 0 0 0 0 0 0 0 0 0 0 0 0 0 0 0 0 0 0 0
0 0 0 0 0 0 0 0 0 0 0 0 0 0 0 0 0 0 0 0 0 0 0 0 0 0 0 0 0 0 0 0 0 0 0 0 0 0 0 0 0 0 0 0
0 0 0 0 0 0 0 0 0 0 0 0 0 0 0 0 0 0 0 0 0 0 0 0 0 0 0 0 0 0 0 0 0 0 0 0 0 0 0 0 0 0 0 0
0 0 0 0 0 0 0 0 0 0 0 0 0 0 0 0 0 0 0 0 0 0 0 0 0 0 0 0 1 1 1 0 0 0 0 0 0 0 0 0 0 0 0 0

GEFSCGP_con_prob3kmehi_156.txt.gz
EHI
0 0 0 0 0 0 0 0 0 0 0 0 0 1 2 2 5 12 21 32 39 42 42 41 38 35 36 35 30 27 25 25 25 22 19 17 12 8 5 3 1 0 0 0
0 0 0 0 0 0 0 0 0 0 0 0 0 1 1 1 4 10 19 25 31 36 39 40 39 37 36 36 32 29 28 28 28 27 24 20 16 10 7 4 2 1 0 0
0 0 0 0 0 0 0 0 0 0 0 0 0 0 1 1 3 8 14 17 21 27 32 37 39 37 35 34 31 29 30 30 30 29 25 20 16 11 7 6 4 2 1 1
0 0 0 0 0 0 0 0 0 0 0 0 0 0 1 1 3 6 11 14 16 20 25 32 36 34 31 28 25 25 27 29 29 26 21 16 13 9 7 7 7 5 4 3
0 0 0 0 0 0 0 0 0 0 0 0 0 0 1 1 2 5 10 13 14 16 19 25 29 29 25 21 19 20 22 25 26 21 16 12 11 9 7 9 10 9 7 4
0 0 0 0 0 0 0 0 0 0 0 0 0 0 0 0 1 4 8 11 13 15 18 21 25 25 21 18 17 17 19 21 20 16 13 11 10 9 9 11 12 11 9 6
0 0 0 0 0 0 0 0 0 0 0 0 0 0 0 0 0 2 6 10 12 15 19 23 24 22 19 17 16 16 17 17 16 12 10 9 9 9 10 11 11 11 9 7
0 0 0 0 0 0 0 0 0 0 0 0 0 0 0 0 0 1 4 9 13 15 19 22 21 19 16 15 15 15 15 14 12 10 9 8 9 9 10 10 9 10 9 7
0 0 0 0 0 0 0 0 0 0 0 0 0 0 0 0 0 1 5 9 13 15 16 15 14 13 13 12 11 11 12 11 10 10 8 8 8 10 10 9 8 8 7 5
0 0 0 0 0 0 0 0 0 0 0 0 0 0 0 0 1 3 6 9 13 14 12 9 8 8 10 9 9 9 10 9 8 8 7 6 7 9 10 8 6 6 4 3
0 0 0 0 0 0 0 0 0 0 0 0 0 0 0 0 1 3 6 9 12 12 9 7 6 6 8 8 8 8 8 6 4 4 4 4 4 6 7 5 4 4 3 2
0 0 0 0 0 0 0 0 0 0 0 0 0 0 0 0 1 3 5 8 11 10 8 7 6 6 6 7 8 8 6 4 1 1 2 2 2 3 4 4 4 4 4 4
0 0 0 0 0 0 0 0 0 0 0 0 0 0 0 0 0 1 3 6 9 10 10 10 8 7 6 7 7 7 5 3 1 0 1 1 2 3 3 3 5 5 6 7
0 0 0 0 0 0 0 0 0 0 0 0 0 0 0 0 0 0 2 4 7 10 14 15 12 10 9 7 6 6 5 2 1 1 0 2 4 5 3 3 4 4 6 8
0 0 0 0 0 0 0 0 0 0 0 0 0 0 1 0 0 0 1 4 7 12 17 18 15 15 14 11 7 7 6 4 3 3 2 3 5 5 3 3 3 3 5 7
0 0 0 0 0 0 0 0 0 0 0 0 0 0 0 0 0 1 2 4 8 13 16 16 16 16 18 16 13 12 12 10 8 6 4 4 5 5 5 4 3 4 5 6
0 0 0 0 0 0 0 0 0 0 0 1 0 0 0 0 1 3 4 7 9 10 10 12 13 14 16 16 16 17 18 16 14 11 8 7 7 7 7 6 5 6 7 7
0 0 0 0 0 0 0 0 0 0 0 0 0 0 1 2 3 4 6 8 9 8 7 8 10 11 12 13 15 18 20 19 16 14 12 12 11 11 11 10 10 11 10 9
0 0 0 0 0 0 0 0 0 0 0 0 0 0 1 2 3 4 6 8 9 8 8 7 7 9 12 14 16 18 19 19 17 16 16 16 15 14 14 15 15 14 13 11
0 0 0 0 0 0 0 0 0 0 0 0 0 0 1 2 4 4 5 7 8 9 10 9 9 12 17 20 21 21 19 19 18 18 17 17 16 16 16 17 19 19 15 12
0 0 0 0 0 0 0 0 0 1 1 0 0 1 1 3 5 5 6 9 9 9 11 13 15 20 25 29 29 27 23 20 19 19 19 18 17 17 17 21 25 23 18 14
0 0 0 0 0 0 1 1 1 2 2 1 1 2 3 5 6 5 7 11 10 8 9 14 20 27 33 35 34 33 29 24 22 22 21 20 19 18 20 25 29 27 22 19
0 0 0 0 0 0 0 1 1 1 2 2 2 2 2 5 6 5 7 12 12 9 7 11 18 27 33 35 34 33 30 28 26 24 21 21 21 20 22 26 28 26 22 19
0 0 0 0 0 0 0 0 0 0 1 1 1 1 1 2 3 4 5 10 13 11 10 13 18 25 31 33 32 29 29 29 28 25 23 24 23 23 24 24 23 20 16 13
0 0 0 0 0 0 0 0 0 0 0 0 0 0 0 0 1 1 3 7 10 11 13 18 23 28 31 32 32 32 32 30 28 26 26 26 24 23 23 22 17 12 9 7
0 0 0 0 0 0 0 0 0 0 0 0 0 0 0 0 0 1 3 5 7 9 14 20 27 30 30 32 34 37 36 33 30 28 26 24 23 22 21 18 13 7 4 4

GEFSCGP_con_prob3kmehi_162.txt.gz
EHI
0 0 0 0 0 0 0 0 0 0 0 0 0 1 5 6 9 18 31 43 57 69 75 75 72 66 63 65 65 64 62 61 58 52 45 43 41 38 38 37 33 26 19 13
0 0 0 0 0 0 0 0 0 0 0 0 0 2 5 8 11 20 31 43 57 69 74 74 70 65 62 61 62 60 59 57 55 51 45 42 41 39 37 37 33 25 18 13
0 0 0 0 0 0 0 0 0 0 0 0 0 3 8 10 13 21 30 40 52 64 71 70 66 62 60 58 56 55 54 54 54 51 44 39 38 37 36 36 31 24 17 14
0 0 0 0 0 0 0 0 0 0 0 0 0 4 10 13 16 23 30 37 45 56 64 66 63 61 59 56 53 51 51 53 53 50 44 38 34 33 35 34 29 24 19 17
0 0 0 0 0 0 0 0 0 0 0 0 0 2 8 13 18 25 32 38 42 48 55 60 62 61 57 53 51 50 50 50 49 47 44 38 33 32 34 34 30 25 20 18
0 0 0 0 0 0 0 0 0 0 0 0 0 1 4 9 16 24 33 40 42 43 49 56 58 58 55 51 50 49 48 47 45 43 41 38 34 35 36 34 31 25 19 16
0 0 0 0 0 0 0 0 0 0 0 0 0 0 1 5 11 19 30 40 42 40 46 53 53 51 50 49 49 48 47 44 42 41 38 36 35 35 34 31 29 25 19 16
0 0 0 0 0 0 0 0 0 0 0 0 0 0 2 4 6 13 24 34 37 37 41 47 47 45 46 47 47 46 45 42 42 41 39 37 36 34 30 29 27 24 20 16
0 0 0 0 0 0 0 0 0 0 0 0 0 1 4 7 7 10 19 27 30 31 35 40 41 41 44 45 43 42 41 39 39 37 36 36 35 31 29 30 28 24 22 18
0 0 0 0 0 0 0 0 0 0 0 0 0 0 4 9 9 10 15 22 26 26 29 34 38 39 42 42 40 38 36 34 32 29 28 28 29 29 31 31 29 26 24 22
0 0 0 0 0 0 0 0 0 0 0 0 0 0 2 6 7 8 12 18 25 27 26 30 37 40 40 38 36 34 34 31 25 20 19 20 22 25 28 29 30 30 28 27
0 0 0 0 0 0 0 0 0 0 0 0 0 0 1 3 5 6 9 15 23 28 28 30 37 41 40 35 30 30 33 30 21 16 16 17 19 21 23 25 29 30 29 27
0 0 0 0 0 0 0 0 0 0 0 0 0 0 1 3 5 7 9 13 18 24 29 35 42 46 44 37 29 27 31 28 20 15 15 17 19 18 18 21 25 29 27 23
0 0 0 0 0 0 0 0 0 0 0 0 0 1 3 5 7 9 11 13 15 19 28 40 50 52 49 43 35 31 31 29 24 20 18 19 20 18 16 19 24 26 24 19
0 0 0 0 0 0 0 0 0 0 0 0 0 1 4 6 7 10 13 14 13 16 25 39 53 58 54 48 41 37 35 34 32 27 24 25 25 21 18 19 22 23 20 17
1 0 0 0 0 0 0 0 0 0 0 0 0 2 5 7 8 11 13 15 16 18 23 34 50 61 61 52 44 40 40 41 40 34 30 31 30 25 19 18 20 22 20 17
1 0 0 0 0 0 0 0 0 0 1 0 1 4 7 10 11 12 13 17 22 25 28 34 47 61 63 55 47 41 41 43 41 35 32 33 32 26 20 18 22 25 24 21
1 0 0 0 0 0 0 0 0 0 1 2 4 8 11 12 14 15 16 22 29 35 38 39 44 53 56 54 49 42 38 37 36 32 30 31 30 26 22 21 26 33 33 30
0 0 0 0 0 0 0 1 0 1 2 5 8 11 12 12 14 16 20 27 35 40 42 41 39 42 49 52 50 43 35 32 30 27 27 29 29 28 25 26 33 40 41 38
1 0 0 0 0 0 0 1 1 1 4 9 12 12 12 13 14 16 19 26 34 37 38 37 35 39 48 55 55 46 36 32 29 26 25 28 33 34 33 36 41 44 42 38
1 0 0 0 0 0 1 1 3 6 11 16 17 16 16 18 18 18 19 22 26 29 30 31 34 41 52 60 59 50 40 36 33 29 27 31 36 38 40 44 48 47 39 34
1 0 0 0 0 2 4 4 7 14 21 21 19 18 19 20 20 19 18 17 18 22 25 30 34 41 51 60 61 54 48 44 40 34 33 36 39 38 39 47 52 47 39 34
0 0 1 2 3 6 7 7 10 16 20 17 13 13 15 16 16 15 13 11 13 17 24 31 35 38 45 52 56 56 55 52 46 40 40 44 43 39 41 47 47 43 38 33
0 0 2 4 6 8 8 7 8 10 11 8 5 6 8 10 10 10 9 9 10 14 22 30 34 36 39 43 46 51 56 56 52 47 47 48 46 42 42 43 38 33 30 27
0 0 2 5 6 5 5 4 4 5 5 4 3 3 4 6 7 8 8 7 9 14 20 27 32 35 37 39 42 46 53 56 54 53 50 48 44 40 37 34 28 21 17 15
0 0 1 3 4 3 2 2 3 4 4 4 4 4 3 3 6 7 7 6 8 12 19 26 31 34 37 42 44 47 53 56 55 54 51 47 42 37 32 29 22 13 8 6

GEFSCGP_con_prob3kmehi_168.txt.gz
EHI
0 0 0 0 0 0 0 0 0 0 0 0 0 2 9 19 26 35 45 50 50 49 52 57 61 65 64 60 57 58 58 48 35 28 24 18 11 6 3 2 2 3 4 3
0 0 0 0 0 0 0 0 0 0 0 0 1 3 10 18 25 34 45 52 52 52 56 60 62 63 61 58 56 55 54 47 35 26 22 18 12 7 4 2 1 1 2 2
0 0 0 0 0 0 0 0 0 0 0 0 1 3 9 17 24 34 47 55 56 56 57 60 61 61 58 56 53 51 49 44 35 26 22 20 15 11 7 4 1 0 0 0
0 0 0 0 0 0 0 0 0 0 0 0 0 1 6 14 24 35 49 58 60 58 57 57 57 57 55 52 50 48 44 41 36 29 25 23 20 15 10 7 3 1 0 0
0 0 0 0 0 0 0 0 0 0 0 0 0 0 3 11 22 32 44 55 59 59 56 54 53 52 50 47 46 43 41 39 37 33 29 25 21 16 11 8 5 2 1 0
0 0 0 0 0 0 0 0 0 0 0 0 0 0 2 7 16 25 36 49 56 56 54 53 51 50 48 44 40 39 39 40 38 35 29 23 19 15 12 9 6 3 2 1
0 0 0 0 0 0 0 0 0 0 0 0 0 0 1 4 10 18 31 44 51 52 52 52 50 49 46 42 38 36 37 39 39 36 29 21 15 13 11 8 5 4 2 2
0 0 0 0 0 0 0 0 0 0 0 0 0 0 1 4 8 15 27 38 44 48 51 51 48 45 43 39 37 35 35 37 37 34 28 20 13 11 9 6 4 3 1 1
0 0 0 0 0 0 0 0 0 0 0 0 0 0 2 5 8 13 21 30 37 42 45 45 41 39 37 35 34 34 33 33 33 32 28 22 15 11 7 4 3 2 0 0
0 0 0 0 0 0 0 0 0 0 0 0 0 0 2 5 8 11 15 20 26 31 34 35 34 32 31 32 32 32 31 30 29 29 28 24 17 12 8 5 3 2 0 0
0 0 0 0 0 0 0 0 0 0 0 0 0 0 1 5 8 9 10 13 18 23 27 30 30 29 29 30 30 30 29 26 24 24 25 23 17 12 9 7 4 2 0 0
0 0 0 0 0 0 0 0 0 0 0 0 0 0 1 5 8 8 8 10 15 20 26 29 30 28 28 27 27 26 24 21 19 19 20 18 14 11 9 8 6 3 1 0
0 0 0 0 0 0 0 0 0 0 0 0 0 0 2 5 7 6 6 7 12 18 22 25 27 27 26 25 22 20 18 16 15 15 15 13 11 9 8 7 5 3 1 0
0 0 0 0 0 0 0 0 0 0 0 0 0 0 2 5 6 4 4 5 9 13 16 17 20 23 23 21 18 16 14 11 11 12 10 9 8 8 7 5 4 2 1 0
0 0 0 0 0 0 0 0 0 0 0 0 0 1 2 3 4 5 5 5 8 11 12 11 12 16 19 17 14 13 12 9 8 8 8 7 7 7 6 4 3 1 0 0
0 0 0 0 0 0 0 0 0 0 0 0 0 1 1 2 4 6 7 7 8 10 10 9 9 12 16 14 11 10 10 9 7 7 7 7 6 6 6 4 2 1 0 0
0 0 0 0 0 0 0 0 0 1 1 0 0 1 1 3 4 5 8 9 9 10 9 8 9 12 14 13 9 8 8 9 8 6 6 7 7 7 6 4 2 1 1 1
0 0 0 0 0 0 0 0 1 2 2 1 1 2 3 5 5 6 7 9 11 12 11 9 9 12 14 13 11 9 8 7 6 5 5 6 7 7 6 4 2 1 1 1
0 0 0 0 0 0 0 0 1 2 2 3 4 5 5 8 10 8 7 8 11 13 12 11 11 14 16 15 13 11 7 6 5 4 4 6 7 7 7 6 3 2 3 3
0 0 0 0 0 0 0 0 0 1 2 5 6 6 6 8 9 8 7 8 10 12 12 13 14 17 18 15 13 11 8 7 5 4 4 6 8 9 9 7 5 4 4 5
0 0 0 0 0 0 0 0 0 0 1 3 4 4 5 6 6 7 8 9 11 13 13 14 16 18 18 15 12 11 9 7 6 5 5 6 8 10 10 8 7 6 7 7
0 0 0 0 0 0 0 1 0 0 1 2 1 1 3 5 6 8 9 9 10 13 14 14 14 15 16 16 14 11 9 7 7 5 4 4 6 8 9 9 9 9 9 9
0 0 0 0 0 0 0 1 1 1 1 1 1 0 2 5 7 7 6 6 7 9 11 12 11 11 14 16 16 14 11 9 8 6 4 4 4 7 9 9 10 10 10 10
0 0 0 0 1 0 0 0 1 1 1 1 1 1 2 3 5 5 4 4 5 6 8 9 9 9 10 14 17 16 14 13 10 7 6 6 6 6 7 8 8 8 8 8
0 0 0 0 0 0 0 1 1 1 0 0 1 1 2 2 2 2 2 2 3 5 7 8 8 6 7 11 15 16 16 15 13 10 8 7 6 5 4 4 4 4 4 4
0 0 0 0 0 0 1 2 2 1 0 0 1 1 1 1 2 2 1 1 2 4 6 7 6 5 4 7 12 14 15 16 14 11 9 7 6 4 2 1 1 1 1 1